Date,TemperatureHighF,TemperatureAvgF,TemperatureLowF,DewpointHighF,DewpointAvgF,DewpointLowF,HumidityHigh,HumidityAvg,HumidityLow,PressureMaxIn,PressureMinIn,WindSpeedMaxMPH,WindSpeedAvgMPH,GustSpeedMaxMPH,PrecipitationSumIn
2014-1-1,65.8,50.4,41.2,50.8,39.0,33.5,81,66,49,29.91,29.82,4,1,4,0.00
2014-1-2,72.5,53.3,43.5,46.0,37.6,32.8,75,57,35,29.88,29.76,4,1,226,0.00
2014-1-3,69.3,53.3,45.5,46.3,39.0,32.7,69,59,41,29.79,29.65,4,1,5,0.00
2014-1-4,74.5,55.4,43.5,52.3,38.5,26.5,81,56,33,29.79,29.68,6,1,6,0.00
2014-1-5,74.3,54.5,43.5,40.8,28.3,19.6,49,37,27,29.91,29.79,5,1,5,0.00
2014-1-6,100.2,52.3,44.6,44.2,35.2,28.1,61,52,39,29.97,29.85,6,1,6,0.00
2014-1-7,67.1,54.0,46.6,48.7,41.3,35.1,80,63,47,29.91,29.82,8,1,9,0.00
2014-1-8,66.6,55.0,48.2,54.9,47.6,42.3,84,76,62,29.94,29.82,13,3,13,0.00
2014-1-9,68.7,54.2,47.3,56.8,44.8,38.4,89,72,48,29.97,29.88,13,3,17,0.00
2014-1-10,70.7,54.2,45.7,55.3,44.0,38.8,84,69,48,30.00,29.88,6,1,6,0.00
2014-1-11,59.9,51.7,46.9,52.2,45.3,40.3,84,79,73,30.00,29.85,13,2,13,0.00
2014-1-12,68.2,51.7,45.3,48.7,40.9,33.1,87,69,43,30.12,29.94,12,2,12,0.00
2014-1-13,96.6,56.6,46.6,44.6,35.8,30.6,60,47,31,30.18,30.03,8,2,8,0.00
2014-1-14,78.6,60.0,46.9,42.0,31.6,22.3,52,36,23,30.12,30.03,10,3,10,0.00
2014-1-15,79.2,59.6,48.2,42.5,31.9,22.6,47,36,25,30.03,29.88,7,1,7,0.00
2014-1-16,80.8,58.5,48.0,42.8,30.9,25.2,45,36,22,30.00,29.82,6,1,6,0.00
2014-1-17,78.4,56.0,44.8,43.8,33.3,26.4,56,43,27,29.88,29.79,5,1,6,0.00
2014-1-18,79.2,55.7,44.6,44.5,34.4,29.0,64,46,25,29.85,29.76,4,1,4,0.00
2014-1-19,76.3,54.5,43.5,43.0,32.9,27.6,57,45,29,29.88,29.76,6,1,6,0.00
2014-1-20,78.8,55.3,44.4,43.9,34.3,29.5,61,46,26,29.97,29.79,6,1,6,0.00
2014-1-21,75.2,54.5,43.2,44.7,32.8,27.2,61,45,29,29.97,29.85,4,1,5,0.00
2014-1-22,79.9,55.6,44.1,45.2,33.3,24.9,56,44,24,29.88,29.65,4,1,4,0.00
2014-1-23,75.2,56.8,46.6,41.2,33.0,27.2,63,42,26,29.76,29.56,8,2,8,0.00
2014-1-24,66.6,53.1,45.3,45.1,37.3,30.1,69,55,44,30.00,29.74,4,1,4,0.00
2014-1-25,79.0,58.0,47.3,47.2,38.5,31.7,72,51,28,29.97,29.82,5,1,6,0.00
2014-1-26,76.8,57.6,48.7,46.8,37.2,30.8,67,48,30,29.88,29.74,5,1,5,0.00
2014-1-27,68.7,55.4,48.6,53.5,45.9,38.5,81,71,53,29.94,29.76,6,1,226,0.00
2014-1-28,72.5,60.0,50.4,57.6,51.5,44.1,83,74,58,29.97,29.88,10,2,10,0.00
2014-1-29,72.7,61.0,56.3,63.4,54.8,47.4,91,80,69,29.91,29.71,115,3,115,0.00
2014-1-30,67.5,56.5,52.0,50.5,45.7,39.6,83,68,47,29.74,29.56,12,4,19,0.00
2014-1-31,70.2,53.9,45.3,46.8,38.8,12.1,81,59,34,29.79,29.62,18,4,225,0.00
2014-2-1,69.3,51.1,41.2,43.5,34.5,28.6,75,55,33,29.88,29.79,9,2,10,0.09
2014-2-2,50.5,47.2,44.8,45.9,39.9,31.9,89,76,57,29.79,29.56,10,2,10,0.37
2014-2-3,64.2,48.4,42.1,50.7,40.6,35.3,92,75,54,29.79,29.71,17,3,18,0.00
2014-2-4,63.3,48.6,40.5,49.0,38.9,34.5,84,70,52,29.88,29.76,9,2,9,0.00
2014-2-5,63.9,49.9,41.5,47.4,39.7,34.2,83,69,46,29.91,29.79,14,2,14,0.00
2014-2-6,55.8,51.9,47.7,51.5,48.4,42.6,91,88,77,29.79,29.59,8,1,8,1.10
2014-2-7,55.8,52.7,49.3,52.6,49.9,47.1,93,90,87,29.79,29.71,13,3,15,0.24
2014-2-8,61.7,57.4,54.1,59.2,55.0,51.3,94,92,88,29.88,29.74,13,4,13,0.54
2014-2-9,60.4,58.3,56.8,59.0,57.0,55.5,97,95,94,29.91,29.79,10,2,10,0.54
2014-2-10,66.2,56.5,50.0,61.8,53.6,29.3,97,90,33,29.97,29.82,10,2,11,0.00
2014-2-11,67.6,54.0,46.4,59.5,49.1,44.1,96,84,65,29.97,29.85,6,1,7,0.00
2014-2-12,66.0,54.3,46.4,56.7,48.9,43.9,94,83,67,29.97,29.88,6,1,6,0.00
2014-2-13,75.6,60.0,50.5,62.4,53.6,46.4,94,80,59,29.97,29.79,10,1,10,0.05
2014-2-14,66.0,58.3,52.0,59.5,52.9,46.7,93,83,69,29.88,29.76,8,1,10,0.00
2014-2-15,62.6,54.8,50.5,57.3,50.4,46.5,92,85,75,29.76,29.68,11,2,12,0.00
2014-2-16,71.1,57.4,47.8,53.6,44.6,36.3,91,66,34,29.91,29.76,15,2,15,0.00
2014-2-17,68.9,53.9,45.0,48.9,41.7,36.6,80,64,43,29.91,29.79,15,3,15,0.00
2014-2-18,68.5,55.6,46.9,55.3,45.2,40.8,86,69,49,29.91,29.79,11,2,12,0.00
2014-2-19,71.6,58.3,48.6,51.0,45.1,37.0,85,63,41,29.94,29.79,15,3,15,0.00
2014-2-20,72.5,56.2,45.3,48.5,39.1,0.0,80,55,34,29.91,29.82,6,1,8,0.00
2014-2-21,78.8,58.8,46.6,48.9,40.0,34.4,74,52,28,29.82,29.71,8,2,10,0.00
2014-2-22,76.6,58.1,47.3,50.6,42.2,35.7,79,58,33,29.79,29.65,8,1,8,0.00
2014-2-23,74.5,56.8,46.4,55.5,44.9,38.2,82,66,42,29.74,29.65,6,1,7,0.00
2014-2-24,79.3,59.9,46.9,56.4,44.9,39.2,84,60,36,29.74,29.62,10,2,10,0.00
2014-2-25,73.2,58.9,50.4,54.6,46.4,41.3,77,64,46,29.71,29.62,11,2,12,0.00
2014-2-26,60.8,57.5,54.5,55.2,50.6,45.0,90,78,66,29.68,29.44,22,4,24,0.62
2014-2-27,69.1,60.4,55.6,54.4,48.9,45.3,82,67,49,29.62,29.23,15,3,15,0.00
2014-2-28,60.4,56.2,53.4,54.6,50.4,40.6,88,81,61,29.26,29.12,16,3,16,1.03
2014-3-1,64.8,57.4,52.9,57.0,52.0,49.7,91,83,65,29.53,29.20,13,3,13,0.33
2014-3-2,60.8,55.9,51.1,57.8,51.7,46.7,94,86,72,29.94,29.53,8,1,224,0.05
2014-3-3,61.2,55.2,49.6,54.3,50.0,45.6,90,83,71,29.94,29.74,8,1,11,2.60
2014-3-4,68.5,59.8,54.5,59.7,54.3,51.1,92,83,70,29.85,29.76,11,1,11,0.00
2014-3-5,70.5,61.7,54.9,62.1,54.5,47.5,94,79,49,29.79,29.71,12,2,12,0.08
2014-3-6,70.9,60.5,51.8,61.5,53.0,45.3,93,77,56,29.91,29.76,9,2,10,0.04
2014-3-7,75.0,59.5,49.3,52.6,46.0,41.5,82,63,38,29.91,29.79,9,2,10,0.00
2014-3-8,78.8,61.9,48.4,55.4,47.4,42.2,85,61,36,29.91,29.79,7,1,8,0.09
2014-3-9,78.4,65.5,56.7,56.0,47.8,39.1,71,54,38,29.91,29.76,5,1,6,0.00
2014-3-10,75.9,62.7,56.8,51.8,46.7,41.1,76,57,39,29.94,29.79,13,4,13,0.00
2014-3-11,76.6,63.0,50.0,42.4,37.0,30.1,63,40,26,29.94,29.74,10,3,10,0.04
2014-3-12,82.2,65.7,52.9,40.2,32.6,27.3,39,30,21,29.79,29.68,10,3,11,3.84
2014-3-13,84.7,64.3,50.2,40.8,31.4,20.1,47,31,17,29.76,29.68,12,2,12,0.00
2014-3-14,77.4,60.8,48.2,52.0,42.3,30.4,72,52,33,29.97,29.76,9,2,9,0.00
2014-3-15,85.8,65.8,50.5,55.5,44.0,37.6,75,50,23,30.00,29.91,8,2,8,0.00
2014-3-16,83.5,64.0,51.3,56.4,43.7,31.6,75,50,25,30.00,29.88,14,2,15,0.00
2014-3-17,75.0,60.6,52.5,48.8,42.2,35.9,71,52,35,29.97,29.68,18,4,18,0.00
2014-3-18,78.4,61.2,47.8,41.7,34.6,26.4,63,40,22,29.68,29.59,9,2,12,0.00
2014-3-19,81.3,62.2,47.1,45.2,35.8,27.5,60,39,23,29.79,29.68,10,2,10,0.00
2014-3-20,81.0,62.5,52.0,52.1,39.9,32.3,65,44,32,29.76,29.65,10,2,225,0.00
2014-3-21,75.0,58.9,46.0,50.5,41.2,33.6,70,53,39,29.71,29.65,9,2,10,0.04
2014-3-22,75.9,59.0,46.9,51.8,43.2,36.9,76,57,39,29.82,29.68,11,2,11,0.00
2014-3-23,75.2,59.9,48.9,53.3,44.9,37.6,73,59,41,29.85,29.76,8,2,8,0.00
2014-3-24,81.3,62.4,48.4,56.6,43.7,32.2,81,54,26,29.85,29.74,10,2,11,0.00
2014-3-25,66.2,56.6,47.1,52.4,41.5,28.4,73,58,39,29.76,29.59,11,2,14,0.04
2014-3-26,63.9,56.2,52.0,54.4,47.6,44.1,85,73,61,29.71,29.50,15,3,17,0.37
2014-3-27,66.9,58.2,51.8,53.7,46.5,41.2,83,66,46,29.85,29.68,11,2,11,0.00
2014-3-28,71.8,60.8,51.6,54.7,47.1,43.6,81,62,44,29.88,29.79,12,3,13,0.00
2014-3-29,62.4,57.1,51.3,58.5,50.8,45.9,88,80,64,29.82,29.71,11,2,11,0.37
2014-3-30,64.8,55.6,48.7,53.7,45.7,40.2,90,71,49,29.82,29.74,13,3,13,0.09
2014-3-31,56.7,50.5,46.9,46.8,43.4,39.8,83,77,69,29.79,29.56,13,3,14,0.54
2014-4-1,59.0,50.3,46.6,52.6,43.6,40.3,87,78,57,29.65,29.53,15,3,22,0.41
2014-4-2,66.7,54.0,43.9,52.2,43.9,38.5,92,71,47,29.79,29.56,12,2,12,0.00
2014-4-3,67.1,55.1,45.9,52.7,43.3,38.0,83,66,45,29.85,29.71,12,2,12,0.00
2014-4-4,61.2,54.4,50.7,52.7,45.9,41.5,85,73,57,29.76,29.65,17,4,17,0.00
2014-4-5,70.7,58.4,48.7,54.2,46.6,40.5,86,67,47,29.88,29.74,12,3,13,0.00
2014-4-6,80.2,63.4,48.2,55.2,46.8,0.0,81,57,34,29.91,29.79,10,2,10,0.00
2014-4-7,83.8,69.6,54.0,57.5,49.2,43.9,75,51,33,29.85,29.79,9,2,9,0.00
2014-4-8,87.6,71.1,57.0,59.7,51.9,43.8,77,54,30,29.79,29.74,10,1,10,0.04
2014-4-9,77.5,63.4,52.3,58.8,49.5,43.4,80,62,43,29.82,29.71,6,1,6,0.00
2014-4-10,82.4,63.8,51.3,57.0,48.7,42.7,83,61,31,29.76,29.62,6,1,8,0.00
2014-4-11,72.5,61.6,54.7,55.9,49.8,30.6,78,66,48,29.71,29.56,6,1,6,0.00
2014-4-12,73.4,60.7,50.2,52.2,46.2,41.8,75,60,44,29.68,29.56,10,2,11,0.00
2014-4-13,79.3,62.4,51.8,54.2,47.3,42.5,75,60,37,29.76,29.65,12,2,12,0.00
2014-4-14,78.3,63.2,53.1,57.9,50.0,44.5,79,63,42,29.82,29.71,6,1,8,0.00
2014-4-15,77.9,63.6,52.7,56.1,47.5,39.2,79,58,35,29.79,29.62,10,2,10,0.00
2014-4-16,83.5,65.8,51.4,56.0,45.9,38.6,77,52,30,29.65,29.56,10,2,12,0.00
2014-4-17,78.1,63.7,53.2,55.6,47.0,41.1,75,56,41,29.62,29.50,17,2,17,0.00
2014-4-18,77.5,63.3,51.4,53.9,43.7,32.9,72,51,33,29.68,29.59,12,3,13,0.00
2014-4-19,73.4,59.8,49.5,49.1,43.8,36.2,71,56,37,29.82,29.68,15,3,18,0.00
2014-4-20,84.2,65.7,50.7,58.5,45.5,31.2,84,53,25,29.85,29.79,10,2,11,0.00
2014-4-21,71.2,61.6,50.5,50.0,40.9,31.5,62,47,33,29.82,29.68,16,2,16,0.00
2014-4-22,66.2,57.8,51.4,45.8,39.1,34.7,67,51,36,29.85,29.68,22,7,23,0.00
2014-4-23,72.0,60.1,49.5,44.8,40.1,35.2,64,49,35,29.85,29.79,17,4,17,0.00
2014-4-24,72.1,61.3,53.2,53.0,48.2,44.3,75,63,44,29.85,29.68,18,4,18,0.00
2014-4-25,59.5,55.9,51.1,51.8,48.0,42.7,82,75,68,29.71,29.53,16,3,20,0.17
2014-4-26,63.3,55.3,48.4,45.5,41.6,38.4,76,61,44,29.82,29.56,20,6,22,0.00
2014-4-27,69.8,58.7,52.3,52.7,45.3,40.6,73,62,46,29.85,29.71,19,4,20,0.00
2014-4-28,77.9,62.5,49.3,51.5,42.3,32.8,71,50,32,29.91,29.82,15,3,15,0.00
2014-4-29,88.2,70.4,53.2,49.3,41.4,35.0,61,38,21,29.91,29.76,10,2,10,0.00
2014-4-30,92.5,74.7,58.8,52.1,43.8,36.7,59,36,19,29.79,29.74,11,2,11,0.00
2014-5-1,94.1,74.4,59.4,53.1,41.5,31.1,47,32,19,29.82,29.71,58,2,58,0.00
2014-5-2,87.6,70.4,56.5,53.1,42.4,32.1,53,38,21,29.79,29.74,14,2,16,0.00
2014-5-3,72.0,62.2,55.6,51.8,46.6,43.2,70,57,42,29.76,29.71,18,4,22,0.00
2014-5-4,72.7,61.4,54.9,53.6,48.3,45.7,75,63,45,29.76,29.71,17,4,20,0.00
2014-5-5,70.2,60.5,54.5,51.3,46.1,40.7,72,60,45,29.79,29.68,23,6,26,0.00
2014-5-6,73.8,60.5,51.6,49.0,43.1,34.7,69,54,29,29.71,29.59,24,4,24,0.00
2014-5-7,73.0,58.2,49.8,51.3,43.8,39.7,71,59,41,29.76,29.59,18,4,22,0.00
2014-5-8,67.1,60.4,53.4,54.6,49.8,42.5,80,68,62,29.79,29.71,12,3,12,0.00
2014-5-9,70.7,61.9,55.6,55.7,49.3,41.5,82,65,43,29.88,29.79,19,4,19,0.00
2014-5-10,71.6,59.8,52.5,46.8,42.4,39.7,66,53,38,29.85,29.74,28,7,28,0.00
2014-5-11,80.1,65.0,52.3,44.8,38.3,26.6,64,40,24,29.85,29.74,22,4,22,5.12
2014-5-12,88.9,70.1,52.5,48.1,39.0,28.7,64,35,18,29.82,29.74,11,2,11,0.00
2014-5-13,93.7,75.2,58.1,46.2,36.3,28.3,40,26,13,29.85,29.74,11,2,11,0.00
2014-5-14,96.8,77.6,61.2,49.9,37.9,29.1,36,25,11,29.85,29.76,15,2,15,0.00
2014-5-15,93.9,75.8,61.5,49.0,34.7,25.3,33,23,16,29.82,29.74,13,2,14,0.00
2014-5-16,86.2,67.7,55.4,52.6,40.2,27.3,52,38,22,29.79,29.71,17,3,17,0.00
2014-5-17,78.1,64.3,55.4,51.7,45.8,39.0,72,53,33,29.74,29.68,15,3,17,0.00
2014-5-18,71.1,62.5,57.7,53.8,46.3,40.9,70,56,46,29.71,29.65,23,7,26,0.00
2014-5-19,71.4,60.8,56.1,51.1,46.9,44.2,69,61,45,29.71,29.62,20,6,20,0.00
2014-5-20,73.6,62.9,55.0,55.0,48.4,44.2,74,60,43,29.71,29.62,14,3,14,0.00
2014-5-21,80.8,65.3,53.4,57.7,49.1,43.2,78,58,35,29.71,29.62,12,2,15,0.00
2014-5-22,77.5,64.9,54.3,55.5,50.2,28.1,75,60,43,29.76,29.62,10,2,11,0.00
2014-5-23,83.5,67.2,57.2,58.8,51.6,46.5,75,59,37,29.76,29.68,13,3,225,0.00
2014-5-24,82.4,67.9,57.9,58.0,49.9,40.7,73,54,35,29.74,29.65,18,3,18,0.00
2014-5-25,87.1,68.7,54.9,59.0,46.8,37.7,74,49,28,29.76,29.65,22,4,22,0.00
2014-5-26,87.6,69.9,56.3,56.7,45.9,0.0,66,44,30,29.74,29.65,20,3,20,0.00
2014-5-27,81.7,66.9,55.8,48.8,39.6,32.7,59,38,25,29.76,29.71,14,3,15,0.00
2014-5-28,81.1,67.0,53.8,43.0,36.6,33.0,45,34,22,29.76,29.68,13,3,13,0.00
2014-5-29,87.3,68.8,55.4,46.2,37.5,28.1,55,34,20,29.71,29.62,15,3,15,0.00
2014-5-30,77.0,61.6,51.8,51.3,43.5,32.8,66,52,36,29.71,29.62,18,4,22,0.00
2014-5-31,80.8,65.3,53.6,54.3,48.5,43.7,72,56,34,29.74,29.62,8,1,8,0.00
2014-6-1,83.3,67.0,53.2,57.6,49.4,42.7,78,56,32,29.65,29.53,8,2,8,0.00
2014-6-2,72.3,62.5,55.6,50.1,46.8,43.0,69,57,43,29.62,29.53,13,2,13,0.54
2014-6-3,78.1,64.4,52.3,54.8,48.8,43.6,74,58,41,29.68,29.59,11,2,11,0.00
2014-6-4,83.1,68.5,58.1,60.2,52.6,46.6,76,59,38,29.62,29.56,8,2,224,0.00
2014-6-5,80.6,67.2,55.0,61.0,52.0,32.2,77,60,42,29.56,29.53,8,2,8,0.00
2014-6-6,81.3,68.1,59.2,58.4,52.6,47.8,76,59,41,29.56,29.50,8,2,8,0.00
2014-6-7,81.1,68.4,59.2,59.8,52.8,47.9,73,59,41,29.59,29.50,8,2,8,0.00
2014-6-8,99.5,76.3,57.7,65.6,53.4,42.7,80,51,20,29.56,29.47,15,2,15,0.06
2014-6-9,92.7,75.8,61.9,63.2,54.5,49.8,69,50,27,29.50,29.44,13,2,13,0.00
2014-6-10,84.6,70.2,60.1,61.4,53.9,49.2,74,58,40,29.56,29.44,9,2,9,0.00
2014-6-11,81.5,67.7,57.6,58.4,51.5,46.6,73,57,40,29.62,29.50,115,2,115,0.00
2014-6-12,77.7,65.8,58.1,53.9,47.8,43.0,71,53,35,29.71,29.62,20,6,20,0.00
2014-6-13,83.5,66.5,52.5,55.0,45.8,40.8,71,49,28,29.71,29.65,16,3,17,0.00
2014-6-14,89.6,69.7,56.3,55.2,45.0,34.6,71,45,23,29.68,29.56,16,2,17,0.00
2014-6-15,78.8,64.6,56.5,51.8,45.4,37.3,64,51,35,29.59,29.50,17,3,17,0.00
2014-6-16,69.3,61.2,55.0,50.1,45.0,39.9,68,56,44,29.68,29.56,18,4,19,0.00
2014-6-17,81.3,65.2,50.2,49.7,41.3,31.4,70,45,24,29.65,29.59,12,2,12,0.00
2014-6-18,90.7,71.2,55.4,52.5,41.0,31.7,64,37,19,29.68,29.62,17,3,17,0.00
2014-6-19,84.9,70.0,54.3,55.1,46.5,37.8,69,45,27,29.71,29.65,15,3,17,0.00
2014-6-20,86.5,69.8,56.3,59.8,46.4,32.0,73,47,22,29.71,29.65,20,3,20,0.00
2014-6-21,78.8,66.4,56.3,51.0,43.6,35.6,61,45,31,29.65,29.59,13,3,13,0.00
2014-6-22,82.0,65.2,53.1,53.4,46.9,42.0,74,53,33,29.68,29.59,18,3,18,0.00
2014-6-23,83.5,67.0,53.4,56.1,47.9,40.2,75,53,32,29.68,29.62,13,2,13,0.00
2014-6-24,79.9,67.6,57.6,52.8,48.4,43.2,69,51,36,29.74,29.68,25,4,25,5.87
2014-6-25,73.4,64.8,58.1,59.0,54.0,0.0,76,68,39,29.74,29.68,19,4,19,0.00
2014-6-26,78.8,67.2,60.4,58.3,53.2,47.5,81,63,38,29.74,29.68,15,4,17,0.00
2014-6-27,82.9,68.5,57.6,61.0,54.9,49.4,78,63,44,29.74,29.65,16,3,18,0.00
2014-6-28,84.6,69.3,58.6,59.0,50.8,41.8,79,55,33,29.71,29.62,17,4,17,0.00
2014-6-29,93.7,74.5,57.7,58.8,49.5,39.8,72,45,21,29.65,29.56,13,2,13,0.00
2014-6-30,98.2,75.5,61.0,63.5,53.3,44.0,67,48,25,29.59,29.50,7,1,7,0.00
2014-7-1,85.5,71.4,62.6,60.5,54.2,48.1,72,56,37,29.59,29.50,8,2,9,0.00
2014-7-2,83.7,69.1,59.5,60.4,52.1,46.4,72,56,37,29.62,29.56,14,3,14,3.30
2014-7-3,84.9,70.0,57.7,57.9,51.8,47.0,74,55,33,29.68,29.59,10,2,10,0.00
2014-7-4,85.5,69.5,58.5,61.0,52.2,46.1,79,57,31,29.76,29.59,172,3,172,0.00
2014-7-5,84.6,70.0,58.1,60.1,53.2,46.1,75,57,35,29.76,29.71,6,2,7,0.00
2014-7-6,84.7,69.7,55.8,60.8,52.7,46.9,78,57,35,29.79,29.68,6,2,6,0.00
2014-7-7,82.8,69.1,58.3,59.7,54.0,47.7,75,60,41,29.68,29.56,8,2,8,0.00
2014-7-8,84.2,71.2,61.2,61.4,54.7,51.1,74,58,38,29.65,29.56,8,2,8,0.00
2014-7-9,84.6,71.8,63.9,61.6,55.3,49.2,73,58,39,29.65,29.59,10,2,11,0.00
2014-7-10,84.6,70.1,61.2,60.6,54.5,51.3,75,59,40,29.68,29.59,14,3,14,0.00
2014-7-11,107.6,68.3,61.2,73.2,53.2,49.3,72,60,34,29.79,29.68,15,4,16,0.00
2014-7-12,82.6,68.0,59.9,59.2,53.0,47.4,74,60,41,29.79,29.74,12,3,12,0.00
2014-7-13,82.9,70.0,59.7,60.5,54.8,0.0,75,60,42,29.79,29.62,6,2,8,0.00
2014-7-14,85.5,71.4,60.4,65.1,56.4,52.5,79,61,42,29.68,29.56,22,1,22,0.00
2014-7-15,87.8,73.4,62.2,66.1,59.0,53.4,77,62,43,29.74,29.65,9,2,9,0.00
2014-7-16,87.3,73.8,66.0,64.0,57.0,51.2,75,57,36,29.74,29.68,11,2,225,0.00
2014-7-17,81.3,70.3,60.8,61.1,54.2,50.0,75,58,42,29.74,29.65,118,2,118,0.00
2014-7-18,82.0,68.8,60.3,61.0,55.6,51.1,77,64,44,29.71,29.68,10,2,11,0.00
2014-7-19,86.2,73.1,62.8,62.4,56.9,52.5,72,59,39,29.71,29.65,7,2,9,0.00
2014-7-20,84.6,72.7,65.7,63.5,57.7,53.7,74,61,42,29.71,29.65,8,2,9,0.00
2014-7-21,84.0,72.0,65.5,61.0,56.0,51.2,71,58,44,29.79,29.71,14,3,15,0.00
2014-7-22,82.2,69.7,63.0,61.1,55.2,51.7,73,61,45,29.82,29.74,17,2,17,0.00
2014-7-23,86.5,71.7,60.8,63.8,56.2,50.9,80,60,39,29.85,29.76,15,3,15,0.00
2014-7-24,93.7,75.3,60.4,63.7,54.1,44.0,80,52,27,29.79,29.59,13,2,13,0.24
2014-7-25,99.5,78.6,61.0,61.4,50.6,40.1,71,42,18,29.65,29.56,12,2,13,0.00
2014-7-26,92.7,76.5,62.1,63.8,54.6,0.0,68,49,28,29.71,29.59,8,2,8,0.00
2014-7-27,90.1,75.5,66.4,62.4,56.3,51.9,68,53,35,29.76,29.65,8,2,13,0.00
2014-7-28,84.6,73.2,64.2,63.5,57.0,52.3,76,58,40,29.82,29.71,7,2,7,0.00
2014-7-29,88.0,74.2,63.0,64.2,56.8,53.7,74,56,36,29.82,29.74,7,2,7,0.00
2014-7-30,86.2,72.6,62.2,63.4,56.7,52.9,75,59,40,29.74,29.68,7,2,7,0.00
2014-7-31,85.1,71.7,61.7,63.7,57.5,52.4,80,63,43,29.71,29.65,5,1,6,0.00
2014-8-1,85.5,72.2,60.1,64.4,57.6,53.5,82,62,42,29.65,29.59,8,1,8,0.00
2014-8-2,82.9,70.5,61.7,62.9,56.3,51.8,79,62,43,29.68,29.62,8,2,8,0.00
2014-8-3,81.1,70.0,63.5,61.4,55.3,50.5,74,61,43,29.71,29.65,9,2,10,0.00
2014-8-4,81.7,70.5,63.3,60.2,55.2,52.5,71,59,44,29.74,29.65,9,2,10,0.00
2014-8-5,85.5,70.9,62.6,63.2,57.0,52.9,76,62,45,29.79,29.71,13,2,225,0.00
2014-8-6,89.8,75.5,66.7,67.6,58.9,53.4,80,59,34,29.76,29.71,13,2,13,0.00
2014-8-7,84.0,71.9,64.6,62.8,56.1,49.0,76,59,38,29.74,29.62,11,3,11,0.00
2014-8-8,86.7,70.5,59.0,61.1,53.1,45.1,79,56,32,29.68,29.62,15,2,15,0.00
2014-8-9,83.5,69.0,59.5,58.6,51.8,46.1,73,56,38,29.71,29.62,10,2,12,0.00
2014-8-10,83.1,68.7,57.0,59.2,53.5,48.6,79,60,41,29.71,29.65,8,2,9,0.00
2014-8-11,84.7,72.0,63.5,62.5,55.9,50.6,73,58,40,29.68,29.65,8,1,10,0.00
2014-8-12,82.6,69.7,58.3,59.3,53.8,49.4,74,58,41,29.71,29.62,8,2,10,0.00
2014-8-13,86.4,70.7,58.8,60.8,55.1,50.6,77,60,38,29.74,29.65,14,3,14,0.00
2014-8-14,85.8,72.4,63.5,63.9,56.7,50.8,80,60,35,29.71,29.65,10,2,10,0.00
2014-8-15,88.0,72.5,62.1,62.4,56.5,51.5,77,59,37,29.74,29.65,10,2,10,0.00
2014-8-16,85.8,72.2,63.1,62.5,56.4,50.7,74,59,40,29.79,29.71,11,2,11,0.00
2014-8-17,87.1,71.1,62.6,61.0,55.1,50.1,74,59,33,29.76,29.65,7,2,8,0.00
2014-8-18,83.8,69.7,61.3,61.2,55.6,51.0,74,62,43,29.65,29.53,13,2,13,0.00
2014-8-19,81.9,69.2,61.2,61.4,55.2,52.5,76,62,44,29.59,29.53,12,2,12,0.00
2014-8-20,81.7,69.6,60.4,59.3,54.0,50.7,77,59,43,29.65,29.56,11,2,11,0.00
2014-8-21,87.3,72.4,61.0,61.2,56.1,51.9,75,58,40,29.71,29.62,9,2,9,0.00
2014-8-22,89.2,72.0,62.2,61.8,55.5,49.5,78,58,34,29.68,29.62,14,2,17,0.00
2014-8-23,84.4,70.7,61.3,57.6,53.4,50.3,70,56,38,29.68,29.56,10,2,10,0.00
2014-8-24,86.2,71.4,63.0,59.3,54.3,50.0,70,56,36,29.62,29.53,10,2,10,0.00
2014-8-25,80.4,67.0,59.2,57.7,52.5,49.0,77,61,42,29.68,29.56,12,2,13,0.25
2014-8-26,85.6,70.0,57.7,59.3,53.4,48.4,77,57,37,29.74,29.68,10,2,11,0.00
2014-8-27,90.3,73.9,60.3,63.6,56.1,49.7,81,57,31,29.79,29.71,9,2,9,0.00
2014-8-28,87.1,71.8,60.8,62.0,56.1,51.7,77,60,34,29.79,29.68,8,2,8,0.00
2014-8-29,86.7,71.2,61.7,62.8,56.6,49.5,77,62,32,29.71,29.62,9,2,12,0.00
2014-8-30,91.9,74.3,61.9,64.9,54.9,48.1,82,55,27,29.65,29.59,10,2,10,0.00
2014-8-31,92.3,74.2,61.3,61.1,52.2,37.2,74,50,24,29.65,29.59,8,2,11,0.00
2014-9-1,94.8,75.8,59.9,61.9,53.9,45.7,77,50,25,29.59,29.50,11,2,11,0.00
2014-9-2,86.5,71.9,60.3,62.6,55.6,50.8,78,58,38,29.59,29.53,8,2,8,0.00
2014-9-3,86.5,71.2,63.5,60.7,55.3,50.8,72,59,37,29.53,29.44,8,2,8,0.00
2014-9-4,86.4,71.4,63.0,62.9,56.7,51.8,77,62,39,29.56,29.44,7,2,7,0.00
2014-9-5,82.9,70.3,61.7,61.3,55.7,50.5,73,61,41,29.68,29.53,6,2,6,0.00
2014-9-6,81.9,68.4,60.1,60.9,54.1,48.2,75,62,41,29.71,29.62,6,2,224,0.00
2014-9-7,81.9,67.3,57.9,57.4,52.4,48.5,77,60,40,29.65,29.53,6,2,6,0.00
2014-9-8,81.1,65.9,58.8,56.3,50.0,0.0,72,59,38,29.74,29.56,10,4,10,0.00
2014-9-9,81.5,66.0,54.7,58.5,52.7,46.9,78,63,42,29.74,29.62,5,2,6,0.00
2014-9-10,93.6,71.4,56.1,63.2,55.9,49.4,86,62,29,29.68,29.59,6,1,6,0.00
2014-9-11,92.8,72.2,59.0,63.0,55.5,50.7,77,58,30,29.62,29.56,6,1,6,0.00
2014-9-12,89.6,72.3,58.8,62.9,56.2,51.6,81,59,33,29.59,29.53,5,1,6,0.00
2014-9-13,85.3,70.1,59.4,64.0,56.3,51.6,81,63,42,29.56,29.50,6,1,6,0.00
2014-9-14,84.9,70.7,59.5,63.2,55.8,51.0,82,62,38,29.56,29.53,6,1,7,0.00
2014-9-15,85.8,70.0,59.4,61.2,52.6,46.0,78,56,34,29.68,29.56,16,2,18,0.00
2014-9-16,88.9,71.6,57.7,60.3,52.7,47.2,76,54,31,29.68,29.53,10,2,10,0.00
2014-9-17,85.8,71.9,62.8,62.1,55.8,48.4,76,59,32,29.56,29.47,15,3,15,0.00
2014-9-18,80.1,71.0,64.2,65.1,60.2,55.7,84,70,51,29.62,29.50,9,3,9,0.00
2014-9-19,84.9,70.1,59.4,65.6,58.9,54.2,89,69,44,29.65,29.56,8,1,8,0.00
2014-9-20,84.9,71.7,64.9,65.2,58.9,51.9,81,66,43,29.68,29.59,7,2,8,0.00
2014-9-21,83.7,69.2,62.6,63.3,57.0,54.1,78,66,44,29.76,29.65,11,2,11,0.00
2014-9-22,85.6,70.8,64.4,62.1,56.7,51.6,76,63,41,29.76,29.68,10,2,10,0.00
2014-9-23,85.6,69.7,59.0,62.9,57.1,52.1,82,66,42,29.76,29.65,11,4,15,0.00
2014-9-24,86.0,74.6,63.9,65.8,61.1,56.9,85,64,46,29.74,29.62,15,3,16,0.00
2014-9-25,77.7,66.9,61.2,63.9,58.2,53.8,90,75,52,29.74,29.62,13,2,13,0.53
2014-9-26,76.3,65.8,58.1,62.4,55.3,51.7,89,70,48,29.74,29.65,17,3,20,0.00
2014-9-27,78.6,66.9,60.4,59.1,54.3,50.7,80,65,44,29.65,29.56,12,3,13,0.00
2014-9-28,80.2,66.7,57.0,61.6,55.2,52.0,86,68,47,29.71,29.53,10,2,11,0.00
2014-9-29,80.4,66.3,57.6,62.5,55.1,50.9,85,69,46,29.74,29.68,11,1,12,0.00
2014-9-30,82.6,67.4,56.7,60.5,54.3,50.7,85,65,41,29.71,29.56,11,2,12,0.00
2014-10-1,90.1,71.7,58.1,57.3,45.5,35.0,74,44,19,29.65,29.56,9,2,9,0.00
2014-10-2,93.2,73.6,57.2,48.9,40.3,35.0,50,32,17,29.76,29.65,6,1,6,0.00
2014-10-3,97.0,76.7,61.5,55.2,43.0,31.7,56,33,16,29.79,29.74,8,1,8,0.00
2014-10-4,98.6,77.3,62.4,52.6,37.8,24.8,41,26,10,29.79,29.68,6,1,7,441.34
2014-10-5,96.1,75.5,61.3,57.9,44.9,30.8,51,35,18,29.68,29.62,5,1,5,0.00
2014-10-6,90.7,71.3,57.9,62.1,53.1,43.9,74,54,32,29.65,29.56,6,1,6,0.00
2014-10-7,85.8,67.7,56.3,61.8,54.0,-25.8,82,64,37,29.65,29.56,5,1,5,0.00
2014-10-8,89.8,70.2,57.4,65.1,53.9,44.9,86,60,27,29.65,29.59,10,1,12,0.00
2014-10-9,79.3,65.6,56.5,61.8,53.7,49.1,84,67,48,29.76,29.62,6,1,6,0.00
2014-10-10,78.3,66.3,58.5,59.1,54.0,49.6,80,66,47,29.76,29.71,7,1,8,0.00
2014-10-11,83.1,66.2,55.4,61.6,53.3,49.0,84,66,37,29.76,29.68,6,1,6,0.00
2014-10-12,92.7,72.3,57.4,60.7,45.3,29.6,82,46,15,29.71,29.62,10,1,10,0.00
2014-10-13,91.9,72.5,60.6,53.0,39.5,26.8,70,33,18,29.68,29.62,12,2,13,0.00
2014-10-14,70.7,65.6,59.7,58.8,53.6,35.5,81,66,38,29.68,29.53,17,4,17,0.53
2014-10-15,74.5,66.1,59.2,57.3,53.5,49.0,77,65,50,29.76,29.56,12,3,12,0.00
2014-10-16,78.8,63.2,54.3,54.8,47.2,40.7,78,58,35,29.76,29.65,11,2,12,0.00
2014-10-17,76.5,64.3,54.5,53.8,48.1,41.5,70,57,40,29.74,29.62,9,2,10,0.00
2014-10-18,84.4,68.9,58.5,58.1,53.2,50.2,80,59,34,29.71,29.62,10,1,10,0.00
2014-10-19,82.8,66.7,59.0,64.6,55.8,51.8,86,70,44,29.65,29.56,13,2,13,0.00
2014-10-20,78.3,63.2,57.0,59.3,54.3,-30.0,84,74,1,29.79,29.62,14,2,14,0.00
2014-10-21,77.7,62.4,53.1,56.7,48.5,43.6,88,64,34,29.82,29.74,12,2,13,0.00
2014-10-22,80.1,64.3,53.6,56.8,50.2,45.7,80,62,41,29.79,29.74,9,1,10,0.00
2014-10-23,79.9,66.3,58.3,61.2,54.2,49.1,82,66,47,29.76,29.68,8,1,8,0.00
2014-10-24,81.5,65.7,56.1,61.6,54.3,50.7,86,68,41,29.71,29.59,10,2,10,0.00
2014-10-25,74.1,64.9,58.5,61.6,55.3,52.3,89,72,56,29.85,29.62,10,4,13,0.35
2014-10-26,75.6,62.1,54.9,55.5,49.0,44.6,86,65,34,29.88,29.74,17,4,174,0.00
2014-10-27,76.1,60.9,50.7,56.4,48.1,44.5,83,64,41,29.79,29.71,8,2,8,0.00
2014-10-28,81.0,62.4,51.1,52.8,46.1,41.0,81,58,30,29.85,29.76,5,1,5,0.00
2014-10-29,84.9,66.4,55.2,57.0,48.5,42.9,87,56,29,29.82,29.71,4,1,4,0.00
2014-10-30,77.0,65.1,59.0,57.2,49.1,44.8,67,57,37,29.71,29.59,10,2,10,0.00
2014-10-31,63.1,59.8,55.4,56.5,53.4,50.2,89,80,66,29.65,29.44,8,1,8,0.50
2014-11-1,68.7,57.6,53.4,55.3,50.4,46.6,91,78,55,29.76,29.47,13,3,13,0.00
2014-11-2,73.6,58.1,49.5,54.0,45.0,38.0,90,64,37,29.91,29.74,10,2,11,0.00
2014-11-3,76.3,58.8,48.4,50.4,42.5,38.0,79,57,31,30.00,29.85,7,1,9,0.00
2014-11-4,77.0,60.1,49.5,54.1,45.4,40.9,85,61,34,30.03,29.91,5,1,6,0.00
2014-11-5,81.9,63.7,52.9,54.2,47.1,42.9,78,57,32,29.94,29.79,5,1,6,0.04
2014-11-6,81.1,64.3,54.9,58.6,50.5,45.1,78,62,40,29.94,29.85,9,1,11,0.00
2014-11-7,79.2,62.1,52.3,61.8,52.3,47.0,85,71,49,29.94,29.79,6,1,7,0.00
2014-11-8,80.8,63.6,53.2,63.8,53.1,48.7,92,71,42,29.85,29.71,5,1,6,0.00
2014-11-9,82.4,63.5,54.7,62.4,52.6,33.9,86,69,42,29.74,29.53,5,1,5,0.00
2014-11-10,77.2,61.8,54.3,62.1,53.5,48.7,90,75,50,29.59,29.50,7,1,9,0.00
2014-11-11,71.4,60.4,53.1,52.5,48.3,44.3,81,65,46,29.68,29.56,13,2,15,0.00
2014-11-12,74.8,62.8,56.5,50.2,46.7,43.8,70,56,40,29.74,29.68,7,1,8,0.00
2014-11-13,68.4,61.6,57.4,60.8,55.6,49.6,91,81,69,29.82,29.62,8,2,8,0.21
2014-11-14,74.8,60.1,52.3,58.8,52.0,48.2,92,76,51,29.85,29.76,10,2,11,0.00
2014-11-15,74.3,59.4,52.7,56.1,48.8,44.6,87,70,42,29.88,29.79,14,3,15,0.00
2014-11-16,66.9,56.6,50.9,49.5,38.9,30.5,83,55,31,30.00,29.85,6,1,7,0.00
2014-11-17,73.4,56.9,48.9,43.6,37.6,31.7,67,49,31,29.97,29.79,6,2,7,0.00
2014-11-18,68.5,56.7,48.9,44.4,41.0,36.5,68,57,36,29.85,29.76,5,1,5,0.00
2014-11-19,67.8,59.6,54.9,56.1,49.9,40.9,87,71,49,29.85,29.71,13,2,14,0.00
2014-11-20,60.6,56.2,52.3,57.8,53.3,49.5,92,90,86,29.85,29.74,6,1,6,0.12
2014-11-21,68.9,57.9,50.5,58.4,52.4,48.3,95,83,64,29.85,29.74,6,1,6,0.00
2014-11-22,71.2,60.9,53.1,64.9,54.7,46.0,93,80,68,30.00,29.79,18,5,18,0.13
2014-11-23,68.9,56.0,48.9,51.3,45.2,40.3,86,69,41,30.06,29.94,6,2,6,0.00
2014-11-24,73.9,55.3,46.0,48.5,40.6,29.7,83,60,32,30.15,30.00,6,1,6,0.00
2014-11-25,74.1,56.0,47.3,45.7,41.2,36.3,80,59,34,30.18,30.06,5,1,5,0.00
2014-11-26,75.7,58.0,48.7,50.8,45.1,41.2,79,64,36,30.06,29.91,6,1,6,4.64
2014-11-27,76.3,57.5,48.7,56.4,46.6,40.2,87,69,43,29.91,29.76,6,0,6,0.00
2014-11-28,72.9,56.6,48.0,55.6,47.3,39.4,89,72,46,29.79,29.59,8,1,8,0.00
2014-11-29,66.2,60.5,57.2,58.8,55.3,50.5,91,83,72,29.59,29.47,11,2,11,0.00
2014-11-30,59.4,56.5,52.3,57.0,53.7,48.9,94,90,85,29.74,29.47,10,1,10,0.41
2014-12-1,73.2,59.0,54.5,65.5,56.1,53.1,97,90,70,29.82,29.68,3,0,3,0.00
2014-12-2,60.1,57.8,56.5,58.9,56.5,54.7,97,95,93,29.71,29.41,6,1,6,1.82
2014-12-3,65.8,61.0,58.6,63.2,58.8,56.7,98,93,82,29.62,29.41,20,2,20,1.74
2014-12-4,70.0,60.8,56.8,63.2,56.9,35.2,96,88,70,29.76,29.59,2,1,2,0.04
2014-12-5,65.8,60.3,56.5,62.5,57.6,54.5,97,91,82,29.82,29.71,6,1,6,0.25
2014-12-6,71.2,61.4,57.0,65.8,58.2,55.3,97,90,71,29.94,29.79,3,1,3,0.16
2014-12-7,65.8,58.5,54.5,61.5,55.8,37.5,97,91,79,29.94,29.82,3,0,3,0.00
2014-12-8,75.7,60.9,54.3,63.3,56.0,52.3,97,85,61,29.91,29.82,3,0,3,0.00
2014-12-9,64.4,59.8,55.4,60.7,56.5,52.7,95,89,82,29.94,29.79,3,1,3,0.00
2014-12-10,65.1,60.8,55.9,60.2,56.0,53.7,93,85,72,29.79,29.47,19,3,19,0.00
2014-12-11,64.6,58.3,52.3,58.3,54.2,50.7,95,87,73,29.47,29.26,13,3,13,4.36
2014-12-12,58.1,52.5,49.1,55.9,50.5,47.2,96,93,89,29.79,29.38,3,0,3,0.41
2014-12-13,61.7,51.4,46.8,56.9,48.4,45.1,98,90,74,29.91,29.79,2,0,2,0.00
2014-12-14,68.4,54.4,47.1,55.8,47.7,44.8,95,80,53,29.88,29.71,6,1,6,0.13
2014-12-15,58.5,53.2,51.1,56.6,50.5,47.8,94,90,84,29.74,29.56,10,2,10,1.32
2014-12-16,64.4,54.3,49.6,56.7,50.4,47.7,95,87,65,29.68,29.56,9,1,9,0.75
2014-12-17,59.7,53.4,48.2,54.7,49.9,46.0,96,88,73,29.79,29.65,6,1,7,0.12
2014-12-18,64.9,55.4,51.1,58.1,51.5,49.0,95,87,72,29.91,29.76,3,0,4,0.05
2014-12-19,58.5,56.8,54.1,55.7,53.5,49.7,95,89,84,29.88,29.79,12,2,12,0.24
2014-12-20,63.5,58.2,55.4,60.3,54.7,51.3,98,89,75,29.97,29.82,6,1,6,0.04
2014-12-21,68.0,60.3,57.2,62.5,57.3,54.0,96,90,77,30.03,29.94,17,2,17,0.00
2014-12-22,72.5,59.4,53.4,62.5,54.7,51.2,97,85,61,30.00,29.88,8,1,8,0.00
2014-12-23,77.9,59.9,52.3,57.0,50.9,47.1,95,75,42,29.94,29.82,7,1,7,5.12
2014-12-24,62.4,53.9,48.7,56.9,48.2,38.8,93,81,68,29.82,29.68,19,5,19,0.00
2014-12-25,67.1,52.5,44.8,41.7,35.5,30.4,69,54,34,29.88,29.76,19,4,19,5.12
2014-12-26,69.3,52.5,43.7,39.0,32.2,27.5,60,46,32,29.97,29.79,12,2,12,0.00
2014-12-27,65.7,47.7,39.4,38.4,31.6,27.3,70,55,35,30.09,29.94,4,0,4,0.00
2014-12-28,68.5,50.3,40.5,44.8,39.1,33.8,80,67,41,30.06,29.94,1,0,1,0.00
2014-12-29,66.9,51.6,43.3,50.6,39.8,33.7,84,66,41,29.94,29.82,12,2,226,0.00
2014-12-30,65.1,50.0,42.3,35.9,28.4,20.6,72,45,29,29.97,29.79,13,4,13,5.12
2014-12-31,66.9,47.3,36.9,29.3,20.3,0.0,46,35,23,29.97,29.76,12,2,12,0.00
2015-1-1,66.6,47.6,39.9,32.3,22.4,17.7,46,37,25,29.91,29.76,6,2,6,0.00
2015-1-2,64.6,45.4,36.3,37.2,28.1,20.5,67,52,34,29.97,29.82,0,0,0,0.00